Location: Proctor
(47.8934°N, 114.3048°W)
Time: 11:43:01
(UTC+00:00)

Transit 4A - Pass Details

Date: 28 June 2024
Orbit: 870 x 973 km, 66.8° (Epoch: 13 July)

Event Time Altitude Azimuth Distance (km) Brightness Sun altitude
Rises 05:46:23 0° 235° (SW) 3,457 10.8 -14.4°
Reaches altitude 10° 05:48:59 10° 242° (WSW) 2,517 10.2 -14.6°
Maximum altitude 05:54:30 44° 314° (NW) 1,189 9.0 -15.0°
Drops below altitude 10° 06:00:05 10° 26° (NNE) 2,536 10.7 -15.4°
Sets 06:02:43 0° 33° (NNE) 3,487 11.4 -15.5°
